Change the Weather History Date:

Wednesday, March 20, 2013

  Actual Average Record
Temperature  
Mean Temperature 47 °F 56 °F  
Max Temperature 59 °F 68 °F 88 °F (1945)
Min Temperature 35 °F 43 °F 23 °F (1941)
Degree Days  
Heating Degree Days 18 10  
Month to date heating degree days 308 252  
Since 1 July heating degree days 2404 2477  
Cooling Degree Days 0 0  
Month to date cooling degree days 3 0  
Year to date cooling degree days 8 4  
Moisture  
Dew Point 14 °F    
Average Humidity 37    
Maximum Humidity 59    
Minimum Humidity 14    
Precipitation  
Precipitation 0.00 in 0.12 in 1.87 in (2001)
Month to date precipitation 0.75 2.17  
Year to date precipitation 6.39 8.23  
Sea Level Pressure  
Sea Level Pressure 29.97 in    
Wind  
Wind Speed 6 mph (NW)    
Max Wind Speed 16 mph    
Max Gust Speed 22 mph    
Visibility 10 miles    
Events      
T = Trace of Precipitation, MM = Missing Value Source: NWS Daily Summary

Daily Weather History Graph

Daily Weather History Graph

Search for Another Location

Airport or City:

Trip Planner

Search our weather history database for the weather conditions in past years. The results will help you decide how hot, cold, wet, or windy it might be!

Date:

Astronomy

Mar. 20, 2013 Rise Set
Actual Time 7:18 AM EDT 7:27 PM EDT
Civil Twilight 6:53 AM EDT 7:52 PM EDT
Nautical Twilight 6:24 AM EDT 8:22 PM EDT
Astronomical Twilight 5:54 AM EDT 8:52 PM EDT
Moon 1:13 PM EDT (3/20) 2:44 AM EDT (3/20)
Length of Visible Light 12h 59m
Length of Day
12h 08m
First Quarter, 59% of the Moon is Illuminated
Mar 20
First Quarter
Mar 27
Full
Apr 3
Last Quarter
Apr 10
New
Apr 18
First Quarter

Hourly Weather History & Observations

Time (EDT) Temp. Windchill Dew Point Humidity Pressure Visibility Wind Dir Wind Speed Gust Speed Precip Events Conditions
12:53 AM 54.0 °F - 19.9 °F 26% 29.99 in - NNW 9.2 mph - N/A   Clear
1:53 AM 52.0 °F - 15.1 °F 23% 30.00 in - NNW 9.2 mph - N/A   Clear
2:53 AM 51.1 °F - 10.9 °F 20% 30.01 in - North 11.5 mph - N/A   Clear
3:53 AM 48.0 °F - 9.0 °F 21% 30.01 in - North 9.2 mph - N/A   Clear
4:53 AM 45.0 °F 41.8 °F 10.0 °F 24% 30.00 in - North 5.8 mph - N/A   Clear
5:53 AM 43.0 °F 38.8 °F 12.9 °F 30% 30.02 in - North 6.9 mph - N/A   Clear
6:53 AM 43.0 °F 40.3 °F 10.9 °F 27% 30.04 in - NNW 4.6 mph - N/A   Clear
7:53 AM 39.9 °F 36.7 °F 15.1 °F 36% 30.07 in 10.0 mi North 4.6 mph - N/A   Clear
8:53 AM 45.0 °F 42.6 °F 16.0 °F 31% 30.09 in - North 4.6 mph - N/A   Clear
9:53 AM 50.0 °F - 10.0 °F 20% 30.12 in - North 13.8 mph 20.7 mph N/A   Partly Cloudy
10:53 AM 51.1 °F - 3.9 °F 15% 30.11 in - North 12.7 mph - N/A   Scattered Clouds
11:53 AM 52.0 °F - 7.0 °F 16% 30.10 in - NNW 5.8 mph - N/A   Mostly Cloudy
12:53 PM 54.0 °F - 9.0 °F 17% 30.07 in - NE 6.9 mph - N/A   Scattered Clouds
1:53 PM 55.0 °F - 10.0 °F 17% 30.02 in - North 5.8 mph - N/A   Scattered Clouds
2:53 PM 55.9 °F - 8.1 °F 15% 29.98 in 10.0 mi West 4.6 mph - N/A   Scattered Clouds
3:53 PM 57.9 °F - 9.0 °F 14% 29.92 in - Calm Calm - N/A   Partly Cloudy
4:53 PM 55.9 °F - 10.0 °F 16% 29.88 in - Calm Calm - N/A   Clear
5:53 PM 55.9 °F - 12.9 °F 18% 29.86 in - SSW 5.8 mph - N/A   Partly Cloudy
6:53 PM 54.0 °F - 17.1 °F 23% 29.88 in - SSW 5.8 mph - N/A   Mostly Cloudy
7:53 PM 50.0 °F - 19.0 °F 29% 29.86 in - South 5.8 mph - N/A   Scattered Clouds
8:53 PM 48.0 °F - 19.9 °F 33% 29.84 in - South 3.5 mph - N/A   Clear
9:53 PM 45.0 °F 42.6 °F 21.0 °F 39% 29.84 in - South 4.6 mph - N/A   Clear
10:53 PM 43.0 °F 40.3 °F 25.0 °F 49% 29.81 in - SSW 4.6 mph - N/A   Clear
11:53 PM 39.0 °F 34.8 °F 27.0 °F 62% 29.78 in - SSW 5.8 mph - N/A   Clear